This is the latest recevied weather packets stored in our database for station/object N8VDS-10. If no packets are shown the sender has not sent any weather packets the latest 10 day(s).
| Time | Temp. | Humidity | Pressure | Rain* | Wind** | Luminosity | Snow |
|---|---|---|---|---|---|---|---|
| 1777664436 | 8.33° C | 50% | 1017.8 hPa | 0 mm | - | 233 W/m² | - |
| 1777664133 | 8.33° C | 51% | 1017.9 hPa | 0 mm | - | 256 W/m² | - |
| 1777663832 | 8.33° C | 51% | 1017.9 hPa | 0 mm | - | 209 W/m² | - |
| 1777663528 | 8.33° C | 50% | 1017.7 hPa | 0 mm | - | 345 W/m² | - |
| 1777663226 | 8.33° C | 51% | 1017.9 hPa | 0 mm | - | 376 W/m² | - |
| 1777662923 | 8.33° C | 52% | 1017.8 hPa | 0 mm | - | 386 W/m² | - |
| 1777662620 | 7.78° C | 53% | 1018 hPa | 0 mm | - | 235 W/m² | - |
| 1777662316 | 7.78° C | 54% | 1017.7 hPa | 0 mm | - | 185 W/m² | - |
| 1777662011 | 7.78° C | 54% | 1017.7 hPa | 0 mm | - | 243 W/m² | - |
| 1777661708 | 7.78° C | 52% | 1018 hPa | 0 mm | - | 224 W/m² | - |
| 1777661404 | 7.78° C | 53% | 1017.7 hPa | 0 mm | - | 162 W/m² | - |
| 1777661100 | 7.22° C | 54% | 1017.7 hPa | 0 mm | - | 177 W/m² | - |
| 1777660795 | 7.78° C | 53% | 1017.9 hPa | 0 mm | - | 145 W/m² | - |
| 1777660492 | 7.78° C | 54% | 1017.7 hPa | 0 mm | - | 144 W/m² | - |
| 1777660188 | 8.33° C | 53% | 1017.8 hPa | 0 mm | - | 176 W/m² | - |
| 1777659886 | 7.78° C | 54% | 1017.7 hPa | 0 mm | - | 255 W/m² | - |
| 1777659582 | 8.33° C | 56% | 1017.7 hPa | 0 mm | - | 350 W/m² | - |
| 1777659279 | 7.78° C | 55% | 1017.6 hPa | 0 mm | - | 624 W/m² | - |
| 1777658976 | 7.78° C | 55% | 1017.6 hPa | 0 mm | - | 208 W/m² | - |
| 1777658673 | 7.22° C | 55% | 1017.5 hPa | 0 mm | - | 187 W/m² | - |
| 1777658369 | 7.22° C | 55% | 1017.5 hPa | 0 mm | - | 124 W/m² | - |
| 1777658067 | 7.78° C | 54% | 1017.7 hPa | 0 mm | - | 98 W/m² | - |
| 1777657763 | 8.33° C | 55% | 1017.7 hPa | 0 mm | - | 228 W/m² | - |
| 1777657461 | 8.33° C | 54% | 1017.6 hPa | 0 mm | - | 298 W/m² | - |
| 1777657158 | 7.78° C | 55% | 1017.9 hPa | 0 mm | - | 304 W/m² | - |
* Rain latest hour (hover to see other rain measurements)
** Current wind speed in m/s (hover to see current wind gust speed)